(220274) = 2001 SJ145 = 2003 AE76

Discovered at Socorro on 2003-01-10 by LINEAR.

Orbit

Orbit type: Main Belt

Note: WebGL enabled browser required.

epoch2024-03-31.0
epoch JD2460400.5
perihelion date2023-12-27.17811
perihelion JD2460305.67811
argument of perihelion (°)171.59230
ascending node (°)349.82314
inclination (°)13.75456
eccentricity0.1224585
perihelion distance (AU)2.2478295
Tisserand w.r.t. Jupiter3.4
ΔV w.r.t. Earth (km/sec)10.3
semimajor axis (AU)2.5615079
mean anomaly (°)22.79655
mean daily motion (°/day)0.24041440
aphelion distance (AU)2.875
period (years)4.1
P-vector [x]-0.94859517
P-vector [y]0.27479001
P-vector [z]0.15702758
Q-vector [x]-0.31369155
Q-vector [y]-0.75046073
Q-vector [z]-0.58172701
absolute magnitude16.02
phase slope0.15
uncertainty0
referenceE2024-H18
observations used376
oppositions16
arc length (days)9674
first opposition used1997
last opposition used2024
residual rms (arc-secs)0.69
perturbers coarse indicatorM-v
perturbers precise indicator003Ek
first observation date used1997-10-21.0
last observation date used2024-04-16.0
computer nameMPCLINUX
JD of orbit computation2456552.154189
perihelion JD uncertainty (days)9.8746E-05
argument of perihelion uncertainty (°)2.4352E-05
ascending node uncertainty (°)1.5895E-05
inclination uncertainty (°)6.1882E-06
eccentricity uncertainty 1.1156E-07
perihelion distance uncertainty (AU)2.7388E-07
Minimum Orbit Intersection Distances (in AU)
for orbit epoch: 2460400.5, reference: E2024-H18
Mercury1.86963
Venus1.52903
Earth1.25673
Mars0.58287
Jupiter2.1011
Saturn6.59318
Uranus16.1908
Neptune27.0358

Observations

362 total observations over interval: 1997 10 21.15081 – 2024 03 19.038073
These data are available for download (format description).

Date (UT) J2000 RA J2000 Dec Magn Location Ref
1997 10 21.15081 00 14 58.90 +11 19 05.1 20.4 V 691 – Steward Observatory, Kitt Peak-Spacewatch MPS 80157
1997 10 21.17216 00 14 57.81 +11 19 01.3 20.4 V 691 – Steward Observatory, Kitt Peak-Spacewatch MPS 80157
1997 10 21.19430 00 14 56.62 +11 18 57.9 20.2 V 691 – Steward Observatory, Kitt Peak-Spacewatch MPS 80157
2001 09 16.39135 00 11 23.88 +05 37 50.1 20.8   704 – Lincoln Laboratory ETS, New Mexico MPS 36678
2001 09 16.40570 00 11 23.07 +05 37 49.3 20.3   704 – Lincoln Laboratory ETS, New Mexico MPS 36678
2001 09 16.42022 00 11 22.10 +05 37 48.0 20.3   704 – Lincoln Laboratory ETS, New Mexico MPS 36678
2001 09 20.25823 00 07 35.46 +05 31 50.3 19.7   704 – Lincoln Laboratory ETS, New Mexico MPS 36678
2001 09 20.27238 00 07 34.59 +05 31 49.3 20.0   704 – Lincoln Laboratory ETS, New Mexico MPS 36678
2001 09 20.28653 00 07 33.74 +05 31 48.2 20.1   704 – Lincoln Laboratory ETS, New Mexico MPS 36678
2001 09 20.30067 00 07 32.91 +05 31 47.5 19.9   704 – Lincoln Laboratory ETS, New Mexico MPS 36678
2001 09 20.31481 00 07 32.04 +05 31 44.9 19.9   704 – Lincoln Laboratory ETS, New Mexico MPS 36678
2001 09 23.27123 00 04 34.46 +05 26 26.2 19.7   704 – Lincoln Laboratory ETS, New Mexico MPS 43946
2001 09 23.28538 00 04 33.55 +05 26 24.4 20.1   704 – Lincoln Laboratory ETS, New Mexico MPS 43946
2001 09 23.29955 00 04 32.72 +05 26 22.8 20.0   704 – Lincoln Laboratory ETS, New Mexico MPS 43946
2002 12 31.22653 08 25 42.59 +39 33 18.4 19.0 R 699 – Lowell Observatory-LONEOS MPS 71847
2002 12 31.24918 08 25 41.28 +39 33 22.4   699 – Lowell Observatory-LONEOS MPS 71847
2002 12 31.27164 08 25 39.90 +39 33 28.4   699 – Lowell Observatory-LONEOS MPS 71847
2002 12 31.29412 08 25 38.55 +39 33 32.8   699 – Lowell Observatory-LONEOS MPS 71847
2003 01 10.29133 08 14 23.40 +39 57 05.8 18.8 C 704 – Lincoln Laboratory ETS, New Mexico MPS 289421
2003 01 10.30639 08 14 22.19 +39 57 06.7 19.3 C 704 – Lincoln Laboratory ETS, New Mexico MPS 289421
2003 01 10.30678 08 14 22.37 +39 57 08.0 19.4   704 – Lincoln Laboratory ETS, New Mexico MPS 71847
2003 01 10.32163 08 14 21.12 +39 57 06.4 18.5 C 704 – Lincoln Laboratory ETS, New Mexico MPS 289421
2003 01 10.32202 08 14 21.13 +39 57 08.6 19.7   704 – Lincoln Laboratory ETS, New Mexico MPS 71847
2003 01 10.33674 08 14 19.92 +39 57 09.1 18.8 C 704 – Lincoln Laboratory ETS, New Mexico MPS 289421
2003 01 10.33715 08 14 19.95 +39 57 09.1 19.3   704 – Lincoln Laboratory ETS, New Mexico MPS 71847
2003 01 10.35182 08 14 18.83 +39 57 09.4 18.6 C 704 – Lincoln Laboratory ETS, New Mexico MPS 289421
2003 01 10.35221 08 14 18.80 +39 57 10.4 19.2   704 – Lincoln Laboratory ETS, New Mexico MPS 71847
2003 01 13.30687 08 10 34.68 +39 59 38.4 19.4   704 – Lincoln Laboratory ETS, New Mexico MPS 71847
2003 01 13.32208 08 10 33.46 +39 59 38.5 19.8   704 – Lincoln Laboratory ETS, New Mexico MPS 71847
2003 01 13.33704 08 10 32.24 +39 59 39.5 19.5   704 – Lincoln Laboratory ETS, New Mexico MPS 71847
2003 01 13.35209 08 10 31.09 +39 59 40.0 19.5   704 – Lincoln Laboratory ETS, New Mexico MPS 71847
2003 01 13.36698 08 10 29.91 +39 59 40.1 19.9   704 – Lincoln Laboratory ETS, New Mexico MPS 71847
2003 01 14.30196 08 09 17.65 +39 59 56.6 18.7   704 – Lincoln Laboratory ETS, New Mexico MPS 71847
2003 01 14.31731 08 09 16.39 +39 59 56.0 19.1   704 – Lincoln Laboratory ETS, New Mexico MPS 71847
2003 01 14.33269 08 09 15.25 +39 59 58.3 19.1   704 – Lincoln Laboratory ETS, New Mexico MPS 71847
2003 01 14.36341 08 09 12.50 +39 59 58.7 19.5   704 – Lincoln Laboratory ETS, New Mexico MPS 71847
2003 01 31.23214 07 47 36.03 +39 21 31.4 18.8 R 699 – Lowell Observatory-LONEOS MPS 71847
2003 01 31.24991 07 47 34.70 +39 21 25.8   699 – Lowell Observatory-LONEOS MPS 71847
2003 01 31.26786 07 47 33.42 +39 21 21.7   699 – Lowell Observatory-LONEOS MPS 71847
2003 01 31.28576 07 47 32.11 +39 21 16.3   699 – Lowell Observatory-LONEOS MPS 71847
2003 02 06.17959 07 41 05.61 +38 49 04.4 19.1 R 699 – Lowell Observatory-LONEOS MPS 73329
2003 02 06.19585 07 41 04.51 +38 48 59.2   699 – Lowell Observatory-LONEOS MPS 73329
2003 02 06.21203 07 41 03.53 +38 48 51.9   699 – Lowell Observatory-LONEOS MPS 73329
2003 02 06.22830 07 41 02.47 +38 48 46.9   699 – Lowell Observatory-LONEOS MPS 73329
2005 08 27.43755 23 53 53.79 -00 39 34.4 20.1   644 – Palomar Mountain/NEAT MPS 140186
2005 08 27.46300 23 53 52.50 -00 39 35.7 20.5   644 – Palomar Mountain/NEAT MPS 140186
2005 08 27.48441 23 53 51.41 -00 39 37.0 20.1   644 – Palomar Mountain/NEAT MPS 140186
2005 08 30.30089 23 51 30.17 -00 42 20.4 20.6 V 691 – Steward Observatory, Kitt Peak-Spacewatch MPS 140186
2005 08 30.31832 23 51 29.22 -00 42 21.6 20.6 V 691 – Steward Observatory, Kitt Peak-Spacewatch MPS 140186
2005 08 30.33558 23 51 28.32 -00 42 22.5 20.3 V 691 – Steward Observatory, Kitt Peak-Spacewatch MPS 140186
2005 09 10.283037 23 41 17.824 -00 58 13.17 20.34 V 645 – Apache Point-Sloan Digital Sky Survey MPS 390313
2005 09 10.286509 23 41 17.613 -00 58 13.61 21.35   645 – Apache Point-Sloan Digital Sky Survey MPS 390313
2005 09 13.30985 23 38 18.41 -01 03 35.8 19.9 V 691 – Steward Observatory, Kitt Peak-Spacewatch MPS 141691
2005 09 13.33065 23 38 17.14 -01 03 38.2 19.9 V 691 – Steward Observatory, Kitt Peak-Spacewatch MPS 141691
2005 09 13.34858 23 38 16.05 -01 03 40.2 20.0 V 691 – Steward Observatory, Kitt Peak-Spacewatch MPS 141691
2005 10 01.23776 23 20 57.08 -01 36 08.5 20.5 V 703 – Catalina Sky Survey MPS 143882
2005 10 01.24630 23 20 56.65 -01 36 07.2 20.9 V 703 – Catalina Sky Survey MPS 143882
2005 10 01.25483 23 20 56.22 -01 36 06.6 20.6 V 703 – Catalina Sky Survey MPS 143882
2005 10 01.26334 23 20 55.75 -01 36 08.7 19.2 V 703 – Catalina Sky Survey MPS 143882
2005 11 26.185487 23 05 21.445 -00 40 36.84 21.30 V 645 – Apache Point-Sloan Digital Sky Survey MPS 390313
2005 11 26.188959 23 05 21.520 -00 40 36.01 22.21   645 – Apache Point-Sloan Digital Sky Survey MPS 390313
2005 12 01.173627 23 07 29.390 -00 19 24.62 21.48 V 645 – Apache Point-Sloan Digital Sky Survey MPS 390313
2005 12 01.177099 23 07 29.496 -00 19 23.63 22.42   645 – Apache Point-Sloan Digital Sky Survey MPS 390313
2006 10 29.454476 07 18 22.630 +39 48 02.42 20.49 V 645 – Apache Point-Sloan Digital Sky Survey MPS 390313
2006 10 29.457948 07 18 22.779 +39 48 03.49 21.41   645 – Apache Point-Sloan Digital Sky Survey MPS 390313
2006 12 17.31787 07 11 55.89 +44 13 44.9 19.5 V 703 – Catalina Sky Survey MPS 192108
2006 12 17.32868 07 11 55.10 +44 13 48.0 19.1 V 703 – Catalina Sky Survey MPS 192108
2006 12 17.33942 07 11 54.42 +44 13 50.3 19.6 V 703 – Catalina Sky Survey MPS 192108
2006 12 17.35140 07 11 53.59 +44 13 53.5 19.8 V 703 – Catalina Sky Survey MPS 192108
2006 12 26.25327 07 01 10.48 +44 36 38.5 19.3 V 703 – Catalina Sky Survey MPS 192108
2006 12 26.26362 07 01 09.69 +44 36 39.5 19.2 V 703 – Catalina Sky Survey MPS 192108
2006 12 26.27392 07 01 08.86 +44 36 39.8 19.1 V 703 – Catalina Sky Survey MPS 192108
2006 12 26.28429 07 01 08.07 +44 36 41.0 19.4 V 703 – Catalina Sky Survey MPS 192108
2009 09 14.25560 23 01 22.56 -07 44 17.5 20.0   704 – Lincoln Laboratory ETS, New Mexico MPS 294966
2009 09 14.26735 23 01 21.92 -07 44 18.4 20.0   704 – Lincoln Laboratory ETS, New Mexico MPS 294966
2009 09 14.29076 23 01 20.49 -07 44 19.8 20.0   704 – Lincoln Laboratory ETS, New Mexico MPS 294966
2009 09 22.32019 22 53 42.90 -07 54 32.5 19.9 V G96 – Mt. Lemmon Survey MPS 295776
2009 09 22.32573 22 53 42.61 -07 54 32.3 20.1 V G96 – Mt. Lemmon Survey MPS 295776
2009 09 22.33146 22 53 42.28 -07 54 32.3 20.0 V G96 – Mt. Lemmon Survey MPS 295776
2009 09 22.33706 22 53 41.96 -07 54 33.3 20.1 V G96 – Mt. Lemmon Survey MPS 295776
2009 11 09.15881 22 34 44.32 -06 48 16.7 20.9 V G96 – Mt. Lemmon Survey MPS 303118
2009 11 09.16572 22 34 44.40 -06 48 14.8 21.3 V G96 – Mt. Lemmon Survey MPS 303118
2009 11 09.17267 22 34 44.47 -06 48 13.5 21.2 V G96 – Mt. Lemmon Survey MPS 303118
2009 11 09.17976 22 34 44.54 -06 48 11.9 21.1 V G96 – Mt. Lemmon Survey MPS 303118
2012 01 31.63074 15 01 49.413 -25 47 07.87 20.6 w F51 – Pan-STARRS 1, Haleakala MPS 411367
2012 01 31.63606 15 01 49.811 -25 47 11.57 20.6 w F51 – Pan-STARRS 1, Haleakala MPS 411367
